Regional Weather Roundup
Issued by NWS

Home | Current Version | Previous Version | Text Only | Print | Product List | Glossary On
Versions: 1 2 3 4 5 6 7 8 9 10 11 12 13 14 15 16 17 18 19 20 21 22 23 24 25 26 27 28 29 30 31 32 33 34 35 36 37 38 39 40 41 42 43 44 45 46 47 48 49 50
000
ASUS44 KOUN 262010
RWROK

WEATHER ROUNDUP FOR OKLAHOMA
NATIONAL WEATHER SERVICE NORMAN OK
300 PM CDT THU MAY 26 2016

NOTE: "FAIR" INDICATES FEW OR NO CLOUDS BELOW 12,000 FEET WITH NO
      SIGNIFICANT WEATHER AND/OR OBSTRUCTIONS TO VISIBILITY.

OKZ001>007-009>012-014-015-017-262100-
NORTHWEST OKLAHOMA AND THE PANHANDLE

CITY           SKY/WX    TMP DP  RH WIND       PRES   REMARKS
GAGE           FAIR      86  66  51 S26G32    29.69F
GUYMON         FAIR      86  41  20 S14G23    29.69F
ENID/WOODRING  PTSUNNY   91  64  40 S30G37    29.70F HX  93
$$

OKZ016-021>023-033>039-044-045-262100-
SOUTHWEST OKLAHOMA

CITY           SKY/WX    TMP DP  RH WIND       PRES   REMARKS
LAWTON/REGL    FAIR      86  65  49 S28G36    29.75F
LAWTON/FT SILL FAIR      85  70  60 S24G30    29.76F
FREDERICK      FAIR      89  71  55 S22G35    29.71F HX  95
CLINTON        FAIR      89  66  46 S29G39    29.74F HX  91
HOBART         FAIR      90  68  48 S28G37    29.75F HX  94
ALTUS AFB      FAIR      88  68  51 S23G32    29.72F HX  91
$$

OKZ018>020-024>031-262100-
CENTRAL OKLAHOMA

CITY           SKY/WX    TMP DP  RH WIND       PRES   REMARKS
OKLAHOMA CITY  PTSUNNY   83  72  69 S21G28    29.77F
OKC/WILEY POST FAIR      86  67  52 S22G35    29.76F
OKC/TINKER AFB PTSUNNY   84  72  67 S17G25    29.77F
STILLWATER     FAIR      85  71  63 S23G30    29.76F HX  90
GUTHRIE        FAIR      85  72  65 S18G31    29.76F HX  91
$$

OKZ008-013-054>072-262100-
NORTHEAST OKLAHOMA

CITY           SKY/WX    TMP DP  RH WIND       PRES   REMARKS
TULSA          PTSUNNY   84  76  76 S17G24    29.78F HX  93
TULSA/JONES    PTSUNNY   81  73  76 S13G20    29.81F
PONCA CITY     FAIR      87  72  60 SE25G38   29.72F HX  93
BARTLESVILLE   PTSUNNY   81  73  76 S13G26    29.81S
MUSKOGEE       PTSUNNY   81  74  79 S15       29.86F
$$

OKZ032-040>043-046>053-073>077-262100-
SOUTH CENTRAL/SOUTHEAST OKLAHOMA

CITY           SKY/WX    TMP DP  RH WIND       PRES   REMARKS
ARDMORE/DWNTWN FAIR      79  64  61 S12G17    29.82F
MCALESTER      PTSUNNY   82  72  71 S9        29.87F
$$





USA.gov is the U.S. government's official web portal to all federal, state and local government web resources and services.